Lancaster, PA

10:17 PM EDT on April 23, 2017 (GMT -0400)
Lancaster

Weather History for KLNS - October, 2013

Change the Weather History Date:

Tuesday, October 22, 2013

  Actual Average Record
Temperature  
Mean Temperature 48 °F -  
Max Temperature 60 °F 63 °F 82 °F (1979)
Min Temperature 39 °F 39 °F 29 °F (1983)
Degree Days  
Heating Degree Days 17    
Moisture  
Dew Point 40 °F    
Average Humidity 72    
Maximum Humidity 97    
Minimum Humidity 43    
Precipitation  
Precipitation 0.00 in - - ()
Sea Level Pressure  
Sea Level Pressure 29.86 in    
Wind  
Wind Speed 4 mph (WNW)    
Max Wind Speed 17 mph    
Max Gust Speed -    
Visibility 9 miles    
Events      
Averages and records for this station are not official NWS values.
T = Trace of Precipitation, MM = Missing Value Source: NWS Daily Summary

Daily Weather History Graph

Daily Weather History Graph

Search for Another Location

Airport or City:

Trip Planner

Search our weather history database for the weather conditions in past years. The results will help you decide how hot, cold, wet, or windy it might be!

Date:

Astronomy

Oct. 22, 2013 Rise Set
Actual Time 7:23 AM EDT 6:15 PM EDT
Civil Twilight 6:55 AM EDT 6:42 PM EDT
Nautical Twilight 6:24 AM EDT 7:14 PM EDT
Astronomical Twilight 5:52 AM EDT 7:45 PM EDT
Moon 8:53 PM EDT (10/22) 10:50 AM EDT (10/22)
Length of Visible Light 11h 46m
Length of Day
10h 51m
Waning Gibbous, 87% of the Moon is Illuminated
Oct 22
Waning Gibbous
Oct 26
Last Quarter
Nov 3
New
Nov 10
First Quarter
Nov 17
Full

Hourly Weather History & Observations

Time (EDT) Temp. Windchill Dew Point Humidity Pressure Visibility Wind Dir Wind Speed Gust Speed Precip Events Conditions
12:53 AM 48.0 °F - 43.0 °F 83% 29.96 in 10.0 mi Calm Calm - N/A   Clear
1:53 AM 48.9 °F - 45.0 °F 86% 29.92 in 10.0 mi East 4.6 mph - N/A   Clear
2:53 AM 48.9 °F - 45.0 °F 86% 29.91 in 10.0 mi Calm Calm - N/A   Clear
3:53 AM 46.0 °F 43.9 °F 44.1 °F 93% 29.89 in 9.0 mi East 4.6 mph - N/A   Clear
4:53 AM 46.0 °F 43.9 °F 45.0 °F 96% 29.88 in 7.0 mi East 4.6 mph - N/A   Clear
5:53 AM 46.9 °F - 46.0 °F 97% 29.86 in 5.0 mi Calm Calm - N/A   Overcast
6:53 AM 44.1 °F - 43.0 °F 96% 29.85 in 4.0 mi Calm Calm - N/A   Scattered Clouds
7:53 AM 45.0 °F - 44.1 °F 97% 29.84 in 4.0 mi Calm Calm - N/A   Scattered Clouds
8:53 AM 52.0 °F - 48.0 °F 86% 29.85 in 9.0 mi Calm Calm - N/A   Overcast
9:53 AM 54.0 °F - 46.0 °F 75% 29.86 in 10.0 mi WNW 4.6 mph - N/A   Overcast
10:53 AM 52.0 °F - 46.9 °F 83% 29.87 in 9.0 mi NW 9.2 mph - 0.00 in   Overcast
11:53 AM 54.0 °F - 46.9 °F 77% 29.86 in 10.0 mi West 5.8 mph - N/A   Overcast
12:53 PM 55.9 °F - 46.0 °F 69% 29.85 in 10.0 mi West 5.8 mph - N/A   Overcast
1:53 PM 57.0 °F - 46.9 °F 69% 29.83 in 10.0 mi West 4.6 mph - N/A   Mostly Cloudy
2:53 PM 57.9 °F - 46.0 °F 65% 29.81 in 10.0 mi West 10.4 mph - N/A   Mostly Cloudy
3:53 PM 57.9 °F - 37.0 °F 46% 29.81 in 10.0 mi West 17.3 mph - N/A   Clear
4:53 PM 57.9 °F - 36.0 °F 44% 29.81 in 10.0 mi WNW 11.5 mph - N/A   Clear
5:53 PM 54.0 °F - 32.0 °F 43% 29.83 in 10.0 mi WNW 9.2 mph - N/A   Clear
6:53 PM 51.1 °F - 28.9 °F 43% 29.84 in 10.0 mi NW 3.5 mph - N/A   Clear
7:53 PM 48.9 °F - 30.0 °F 48% 29.85 in 10.0 mi West 4.6 mph - N/A   Clear
8:53 PM 46.0 °F 43.9 °F 32.0 °F 58% 29.86 in 10.0 mi West 4.6 mph - N/A   Clear
9:53 PM 39.9 °F 35.8 °F 32.0 °F 73% 29.87 in 10.0 mi NW 5.8 mph - N/A   Clear
10:53 PM 41.0 °F 38.0 °F 30.9 °F 67% 29.86 in 10.0 mi West 4.6 mph - N/A   Clear
11:53 PM 43.0 °F 41.3 °F 30.0 °F 60% 29.84 in 10.0 mi WSW 3.5 mph - N/A   Clear